User: anonymous   Login
Location: Vale
(35.4830°N, 81.3830°W)
Time: 10:26:44
(UTC-04:00)
Language:

Oscar 11 - Orbit

View from above orbital plane
View from above orbital plane
View from above satellite
View from above satellite

Ground track
Ground track

The orbit data is extracted from the following two-line orbital elements,

1 14781U 84021B   15114.16816583  .00001559  00000-0  20144-3 0  9990
2 14781 097.8070 172.5669 0007339 242.6350 117.4117 14.82319312674029
Epoch (UTC): 24 April 2015 04:02:09
Eccentricity: 0.0007339
inclination: 97.8070°
perigee height: 617 km
apogee height: 627 km
right ascension of ascending node: 172.5669°
argument of perigee: 242.6350°
revolutions per day: 14.82319312
mean anomaly at epoch: 117.4117°
orbit number at epoch: 67402

The dashed part of the orbit path shows where the satellite is in the earth's shadow,  

DLR